This demonstration page uses our WeatherBlox Daily Observations layout. Learn more.

Left ArrowRight Arrow

Hourly Observations for April 20, 2021

Temp ( °F °C ) Dew Point ( °F °C ) Humidity (%) Winds ( mph kmh ) Pressure ( in mb ) Visibility ( mi km ) Precip ( " mm )
12:53 am 00:53 Cloudy 30 -1.1 25 -3.9 82 82 SW 10 17 30.39 1029 10 16 0.00 0.00
1:53 am 01:53 Cloudy 31 -0.6 24 -4.4 76 76 WSW 8 13 30.39 1029 10 16 0.00 0.00
2:53 am 02:53 Mostly Clear 28 -2.2 23 -5 81 81 SW 9 15 30.38 1029 10 16 0.00 0.00
3:53 am 03:53 Cloudy 28 -2.2 23 -5 81 81 W 5 7 30.38 1029 10 16 0.00 0.00
4:53 am 04:53 Cloudy 26 -3.3 23 -5 88 88 WSW 3 6 30.39 1029 10 16 0.00 0.00
5:53 am 05:53 Cloudy 28 -2.2 24 -4.4 85 85 WNW 3 6 30.39 1029 10 16 0.00 0.00
6:53 am 06:53 Cloudy 28 -2.2 24 -4.4 85 85 W 3 6 30.40 1030 10 16 0.00 0.00
8:53 am 08:53 Sunny 34 1.1 24 -4.4 67 67 E 3 6 30.42 1030 10 16 0.00 0.00
9:53 am 09:53 Sunny 36 2.2 24 -4.4 62 62 ESE 5 7 30.42 1030 10 16 0.00 0.00
10:53 am 10:53 Sunny 39 3.9 23 -5 53 53 ENE 5 7 30.42 1030 10 16 0.00 0.00
11:53 am 11:53 Mostly Cloudy 42 5.6 22 -5.6 45 45 NNW 8 13 30.40 1030 10 16 0.00 0.00
12:53 pm 12:53 Mostly Cloudy 44 6.7 18 -7.8 35 35 NE 10 17 30.39 1029 10 16 0.00 0.00
1:53 pm 13:53 Mostly Sunny 46 7.8 18 -7.8 32 32 undefined N/A 30.37 1029 10 16 0.00 0.00
2:53 pm 14:53 Sunny 46 7.8 14 -10 27 27 VRB 5 7 30.37 1028 10 16 0.00 0.00
3:53 pm 15:53 Sunny 46 7.8 14 -10 27 27 S 5 7 30.35 1028 10 16 0.00 0.00
4:53 pm 16:53 Sunny 50 10 17 -8.3 27 27 NNE 6 9 30.32 1027 10 16 0.00 0.00
5:53 pm 17:53 Sunny 48 8.9 17 -8.3 29 29 VRB 3 6 30.32 1027 10 16 0.00 0.00
6:53 pm 18:53 Sunny 48 8.9 17 -8.3 29 29 Calm 30.31 1026 10 16 0.00 0.00
7:53 pm 19:53 Sunny 44 6.7 18 -7.8 35 35 E 6 9 30.29 1026 10 16 0.00 0.00
8:53 pm 20:53 Clear 37 2.8 21 -6.1 52 52 ESE 7 11 30.30 1026 10 16 0.00 0.00
9:53 pm 21:53 Clear 32 0 20 -6.7 61 61 ESE 5 7 30.32 1027 10 16 0.00 0.00
10:53 pm 22:53 Clear 31 -0.6 19 -7.2 61 61 Calm 30.30 1026 10 16 0.00 0.00
11:53 pm 23:53 Clear 30 -1.1 19 -7.2 64 64 Calm 30.29 1026 10 16 0.00 0.00

Powered by AerisWeather